TimeEDT,TemperatureF,Dew PointF,Humidity,Sea Level PressureIn,VisibilityMPH,Wind Direction,Wind SpeedMPH,Gust SpeedMPH,PrecipitationIn,Events,Conditions,WindDirDegrees,DateUTC
12:35 AM,30.2,26.6,86,29.99,4.0,NW,11.5,-,0.00,Snow,Light Snow,310,2013-03-28 04:35:00
12:56 AM,28.9,26.1,89,30.06,6.0,NW,6.9,-,0.00,Snow,Light Snow,310,2013-03-28 04:56:00
1:10 AM,28.4,26.6,93,29.99,4.0,NW,8.1,-,0.00,Snow,Light Snow,310,2013-03-28 05:10:00
1:17 AM,28.4,26.6,93,29.99,3.0,NW,8.1,-,0.00,Snow,Light Snow,310,2013-03-28 05:17:00
1:22 AM,28.4,26.6,93,29.99,4.0,NW,6.9,-,0.00,Snow,Light Snow,320,2013-03-28 05:22:00
1:56 AM,28.9,26.1,89,30.05,4.0,NW,6.9,-,0.00,Snow,Light Snow,320,2013-03-28 05:56:00
2:09 AM,28.4,26.6,93,29.99,2.5,NW,6.9,-,0.00,Snow,Light Snow,320,2013-03-28 06:09:00
2:23 AM,28.4,26.6,93,29.99,2.0,NW,8.1,-,0.01,Snow,Light Snow,310,2013-03-28 06:23:00
2:34 AM,28.4,26.6,93,29.99,4.0,NW,8.1,-,0.01,Snow,Light Snow,310,2013-03-28 06:34:00
2:48 AM,28.4,26.6,93,29.99,5.0,WNW,9.2,-,0.01,Snow,Light Snow,300,2013-03-28 06:48:00
2:56 AM,28.9,26.1,89,30.05,7.0,NW,8.1,-,0.01,Snow,Light Snow,310,2013-03-28 06:56:00
3:36 AM,28.4,24.8,86,29.99,10.0,NW,8.1,-,0.00,,Overcast,320,2013-03-28 07:36:00
3:56 AM,28.9,25.0,85,30.05,10.0,NW,8.1,-,0.00,,Overcast,310,2013-03-28 07:56:00
4:25 AM,28.4,24.8,86,29.99,10.0,NW,8.1,-,N/A,,Overcast,310,2013-03-28 08:25:00
4:56 AM,28.9,25.0,85,30.06,10.0,NW,8.1,-,N/A,,Overcast,310,2013-03-28 08:56:00
5:08 AM,28.4,24.8,86,29.99,10.0,NW,9.2,-,N/A,,Overcast,310,2013-03-28 09:08:00
5:56 AM,28.9,25.0,85,30.07,10.0,NW,6.9,-,N/A,,Overcast,320,2013-03-28 09:56:00
6:10 AM,28.4,24.8,86,30.00,9.0,NW,10.4,-,0.00,Snow,Light Snow,320,2013-03-28 10:10:00
6:17 AM,28.4,24.8,86,30.00,5.0,NW,6.9,-,0.00,Snow,Light Snow,320,2013-03-28 10:17:00
6:38 AM,28.4,24.8,86,30.01,7.0,NW,9.2,-,0.00,Snow,Light Snow,320,2013-03-28 10:38:00
6:49 AM,28.4,24.8,86,30.01,4.0,WNW,8.1,-,0.00,Snow,Light Snow,300,2013-03-28 10:49:00
6:56 AM,28.9,25.0,85,30.09,5.0,WNW,8.1,-,0.00,Snow,Light Snow,300,2013-03-28 10:56:00
7:56 AM,28.9,25.0,85,30.11,10.0,NW,9.2,-,0.00,,Overcast,310,2013-03-28 11:56:00
8:56 AM,30.0,26.1,85,30.12,4.0,NW,8.1,-,0.00,Snow,Light Snow,310,2013-03-28 12:56:00
9:38 AM,30.2,26.6,86,30.06,2.5,NW,10.4,-,0.00,Snow,Light Snow,310,2013-03-28 13:38:00
9:46 AM,30.2,26.6,86,30.06,3.0,NW,8.1,-,0.00,Snow,Light Snow,310,2013-03-28 13:46:00
9:56 AM,30.0,26.1,85,30.14,3.0,WNW,9.2,-,0.00,Snow,Light Snow,300,2013-03-28 13:56:00
10:37 AM,30.2,26.6,86,30.08,10.0,WNW,10.4,-,0.00,,Overcast,300,2013-03-28 14:37:00
10:56 AM,32.0,26.1,79,30.15,10.0,WNW,10.4,17.3,0.00,,Overcast,300,2013-03-28 14:56:00
11:22 AM,33.8,26.6,75,30.09,10.0,NW,9.2,-,N/A,,Overcast,310,2013-03-28 15:22:00
11:56 AM,33.1,26.1,75,30.16,10.0,WNW,11.5,-,N/A,,Overcast,290,2013-03-28 15:56:00
12:30 PM,33.8,24.8,70,30.09,10.0,NNW,12.7,-,N/A,,Overcast,340,2013-03-28 16:30:00
12:56 PM,35.1,26.1,70,30.16,10.0,NW,10.4,-,N/A,,Overcast,310,2013-03-28 16:56:00
1:56 PM,35.1,24.1,64,30.16,10.0,NW,8.1,-,N/A,,Overcast,320,2013-03-28 17:56:00
2:56 PM,35.1,23.0,61,30.16,10.0,NNW,11.5,-,N/A,,Overcast,330,2013-03-28 18:56:00
3:56 PM,35.1,24.1,64,30.17,10.0,NNW,9.2,-,N/A,,Overcast,330,2013-03-28 19:56:00
4:56 PM,35.1,24.1,64,30.17,10.0,WNW,9.2,-,N/A,,Overcast,300,2013-03-28 20:56:00
5:56 PM,34.0,24.1,67,30.18,10.0,NW,12.7,-,N/A,,Overcast,310,2013-03-28 21:56:00
6:56 PM,34.0,24.1,67,30.20,10.0,NW,6.9,-,N/A,,Overcast,320,2013-03-28 22:56:00
7:56 PM,33.1,24.1,70,30.22,10.0,NW,8.1,-,N/A,,Overcast,320,2013-03-28 23:56:00
8:56 PM,33.1,25.0,72,30.23,10.0,WNW,9.2,-,N/A,,Overcast,300,2013-03-29 00:56:00
9:56 PM,32.0,26.1,79,30.24,10.0,WNW,6.9,-,N/A,,Overcast,290,2013-03-29 01:56:00
10:56 PM,32.0,26.1,79,30.23,10.0,West,8.1,-,N/A,,Overcast,280,2013-03-29 02:56:00
11:56 PM,32.0,27.0,82,30.23,10.0,West,8.1,-,N/A,,Overcast,280,2013-03-29 03:56:00